Regional Weather Roundup
Issued by NWS

Home | Current Version | Previous Version | Graphics & Text | Print | Product List | Glossary Off
Versions: 1 2 3 4 5 6 7 8 9 10 11 12 13 14 15 16 17 18 19 20 21 22 23 24 25 26 27 28 29 30 31 32 33 34 35 36 37 38 39 40 41 42 43 44 45 46 47 48 49 50

000
ASUS43 KOAX 031810
RWRNE

WEATHER ROUNDUP FOR NEBRASKA
NATIONAL WEATHER SERVICE OMAHA NE
100 PM CDT MON AUG 03 2015

NOTES: SATELLITE DATA IS BEING USED TO AUGMENT CLOUD COVER ABOVE
       12000 FEET.
       "FAIR" INDICATES FEW OR NO CLOUDS BELOW 12,000 FEET WITH NO
       SIGNIFICANT WEATHER AND/OR OBSTRUCTIONS TO VISIBILITY.

  * THESE STATIONS DO NOT REPORT WEATHER SUCH AS RAIN...SNOW OR FOG.

NEZ001>004-019>022-054>056-031900-
NEBRASKA PANHANDLE

CITY           SKY/WX    TMP DP  RH WIND       PRES   REMARKS
SCOTTSBLUFF    PTSUNNY   81  61  50 SE10      30.02F
6HR MIN TEMP:  59; 6HR MAX TEMP:  81;

ALLIANCE       MOSUNNY   82  60  47 SE14      30.03F
6HR MIN TEMP:  59; 6HR MAX TEMP:  82;

CHADRON        PTSUNNY   82  60  47 SE9       30.00F
6HR MIN TEMP:  56; 6HR MAX TEMP:  83;

KIMBALL        PTSUNNY   86  45  23 S16       30.06S
SIDNEY         PTSUNNY   86  58  38 SE10      30.06S
6HR MIN TEMP:  56; 6HR MAX TEMP:  87;

$$

NEZ057>060-069>072-079>082-031900-
SOUTHWEST NEBRASKA

CITY           SKY/WX    TMP DP  RH WIND       PRES   REMARKS
NORTH PLATTE   MOSUNNY   80  67  64 E15       30.01F
6HR MIN TEMP:  59; 6HR MAX TEMP:  80;

IMPERIAL       PTSUNNY   84  61  45 SE12      30.01F
6HR MIN TEMP:  60; 6HR MAX TEMP:  85;

LEXINGTON      MOSUNNY   81  66  60 SE15      30.00F
MCCOOK         PTSUNNY   86  67  52 E14       29.98F
6HR MIN TEMP:  60; 6HR MAX TEMP:  86;

OGALLALA       MOSUNNY   83  64  52 SE10      30.02S
$$

NEZ005>010-023>029-035>040-094-031900-
NORTH CENTRAL NEBRASKA

CITY           SKY/WX    TMP DP  RH WIND       PRES   REMARKS
AINSWORTH      SUNNY     79  59  50 E7        30.04F
BROKEN BOW     MOSUNNY   84  59  42 E12       30.02S
6HR MIN TEMP:  64; 6HR MAX TEMP:  84;

O`NEILL        SUNNY     80  59  48 E5        30.03S
ORD            MOSUNNY   80  61  52 VRB7      30.00F
6HR MIN TEMP:  61; 6HR MAX TEMP:  80; 6HR PCP: TRACE;

THEDFORD       PTSUNNY   81  59  46 SE16G22   30.03F
$$

NEZ041-046>049-061>064-073>077-083>087-031900-
SOUTH CENTRAL NEBRASKA

CITY           SKY/WX    TMP DP  RH WIND       PRES   REMARKS
GRAND ISLAND   MOSUNNY   79  64  60 E12       30.00R
6HR MIN TEMP:  64; 6HR MAX TEMP:  80;

AURORA         MOSUNNY   78  66  66 E7        29.99R
HASTINGS       MOSUNNY   80  65  59 E9        29.99S
6HR MIN TEMP:  66; 6HR MAX TEMP:  81;

HEBRON         SUNNY     83  69  62 E9        29.95F
HOLDREGE       SUNNY     80  66  61 E13       30.00S
KEARNEY *      SUNNY     81  64  57 E12       30.00S
YORK           MOSUNNY   77  66  69 E8        29.99R
$$

NEZ011>018-030>034-042>045-031900-
NORTHEAST NEBRASKA

CITY           SKY/WX    TMP DP  RH WIND       PRES   REMARKS
NORFOLK        MOSUNNY   77  61  57 S7        30.01S
6HR MIN TEMP:  64; 6HR MAX TEMP:  77; 6HR PCP:  0.01;

ALBION         SUNNY     76  59  55 E7        30.02S
BLAIR          LGT RAIN  71  63  76 NE3G9     29.95F
COLUMBUS *     MOSUNNY   75  63  64 S5        30.00F
FREMONT        CLOUDY    76  62  61 SE3       29.98F
TEKAMAH        PTSUNNY   78  65  63 E5        29.97F
6HR MIN TEMP:  64; 6HR MAX TEMP:  78;

WAYNE          MOSUNNY   77  62  59 S3        30.01R
$$

NEZ050>053-065>068-078-088>093-031900-
SOUTHEAST NEBRASKA

CITY           SKY/WX    TMP DP  RH WIND       PRES   REMARKS
LINCOLN        PTSUNNY   79  64  60 N12       29.99R
6HR MIN TEMP:  68; 6HR MAX TEMP:  80; 6HR PCP: TRACE;

OMAHA EPPLEY   LGT RAIN  77  62  59 CALM      29.97F
6HR MIN TEMP:  67; 6HR MAX TEMP:  78; 6HR PCP: TRACE;

BEATRICE       MOSUNNY   80  69  70 SE9       29.95F
FALLS CITY     MOSUNNY   78  71  79 VRB3      29.96R
6HR MIN TEMP:  70; 6HR MAX TEMP:  79;

NEBRASKA CITY  MOSUNNY   77  60  55 SE10      29.97F
PLATTSMOUTH    PTSUNNY   77  62  60 N7        30.00R
$$

NEZ044-045-051>053-067-031900-
OMAHA AREA

CITY           SKY/WX    TMP DP  RH WIND       PRES   REMARKS
OMAHA EPPLEY   LGT RAIN  77  62  59 CALM      29.97F
6HR MIN TEMP:  67; 6HR MAX TEMP:  78; 6HR PCP: TRACE;

BLAIR          LGT RAIN  71  63  76 NE3G9     29.95F
FREMONT        CLOUDY    76  62  61 SE3       29.98F
MILLARD        CLOUDY    77  62  60 E5        29.96F
OFFUTT AFB     CLOUDY    77  63  61 E6        29.97F
PLATTSMOUTH    PTSUNNY   77  62  60 N7        30.00R
WAHOO          FAIR      77  64  64 SE8       29.97F
$$


USA.gov is the U.S. government's official web portal to all federal, state and local government web resources and services.